Regional Weather Roundup
Issued by NWS Glasgow, MT

Current Version | Previous Version | Text Only | Print | Product List | Glossary On
Versions: 1 2 3 4 5 6 7 8 9 10 11 12 13 14 15 16 17 18 19 20 21 22 23 24 25 26 27 28 29 30 31 32 33 34 35 36 37 38 39 40 41 42 43 44 45 46 47 48 49 50
000
ASUS45 KGGW 281515
RWRGGW
HOURLY REGIONAL WEATHER ROUNDUP FOR NORTHEAST MONTANA
NATIONAL WEATHER SERVICE GLASGOW MONTANA
900 AM MDT FRI AUG 28 2015

NOTE: "FAIR" INDICATES FEW OR NO CLOUDS BELOW 12,000 FEET WITH NO
SIGNIFICANT WEATHER AND/OR OBSTRUCTIONS TO VISISBILITY.

NORTHEAST MONTANA


CITY           SKY/WX    TMP DP  RH WIND       PRES   REMARKS
GLASGOW        CLOUDY    64  53  67 W3        29.94R HAZE
PLENTYWOOD       N/A     66  52  60 SW2         N/A
WOLF POINT     SUNNY     65  54  67 W6        29.93R
JORDAN           N/A     67  46  47 SW3       29.99R
WINNETT          N/A     75  40  28 W7G22       N/A
SIDNEY         SUNNY     64  59  82 S6        29.92S
GLENDIVE       SUNNY     66  54  63 W3        29.97R
MALTA            N/A     63  46  54 SW7         N/A
SCOBEY           N/A     61  50  67 CALM      29.91S

FORT PECK REPORTS


CITY           SKY/WX    TMP DP  RH WIND       PRES   REMARKS
FORT PECK        N/A     69  53  56 W7          N/A
THE PINES        N/A     67  51  56 SW3         N/A

SOUTHEAST MONTANA


CITY           SKY/WX    TMP DP  RH WIND       PRES   REMARKS
BILLINGS       PTSUNNY   65  48  54 SW14      30.12R
MILES CITY     MOSUNNY   71  47  42 W5        30.00R HAZE
BAKER          SUNNY     70  53  54 W3        30.00S
LIVINGSTON     SUNNY     65  43  44 E6        30.16F

CENTRAL MONTANA


CITY           SKY/WX    TMP DP  RH WIND       PRES   REMARKS
HAVRE          CLOUDY    65  45  48 SW10      29.98S HAZE
LEWISTOWN      PTSUNNY   71  43  36 SW3       30.10S HAZE
GREAT FALLS    PTSUNNY   74  36  25 SW15      30.05R HAZE
CUT BANK       CLOUDY    68  39  34 SW8       30.03S HAZE
HELENA         CLOUDY    61  45  55 N5        30.15R SMOKE
BUTTE          CLOUDY    47  43  86 SE3       30.25S FOG
BOZEMAN        MOSUNNY   58  49  72 CALM      30.19S

WESTERN MONTANA


CITY           SKY/WX    TMP DP  RH WIND       PRES   REMARKS
MISSOULA       CLOUDY    53  42  66 NW3       30.10F HAZE
KALISPELL      NOT AVBL

NORTH DAKOTA


CITY           SKY/WX    TMP DP  RH WIND       PRES   REMARKS
WILLISTON      MOSUNNY   65  60  84 S6        29.91R
DICKINSON      SUNNY     71  54  54 W10       29.93S
MINOT          MOSUNNY   71  60  68 SW9       29.85R HAZE
BISMARCK       SUNNY     70  63  78 SW7       29.91S

SOUTHERN SASKATCHEWAN


CITY           SKY/WX    TMP DP  RH WIND       PRES   REMARKS
REGINA         CLOUDY    66  61  82 VRB2      29.87S FOG
MOOSE JAW      MOSUNNY   63  61  94 S2        29.89R SMOKE
ESTEVAN        CLOUDY    66  59  77 W5        29.88R SMOKE
SWIFT CURRENT  SUNNY     63  48  59 W9        29.89R HAZE



USA.gov is the U.S. government's official web portal to all federal, state and local government web resources and services.